Time,TemperatureF,DewpointF,PressureIn,WindDirection,WindDirectionDegrees,WindSpeedMPH,WindSpeedGustMPH,Humidity,HourlyPrecipIn,Conditions,Clouds,dailyrainin,SoftwareType,DateUTC
2013-05-02 00:00:00,69.3,55.2,30.15,ENE,68,0.0,1.0,61,0.00,CLR,,0.00,WeatherDisplay:10.37,2013-05-02 04:00:00,
2013-05-02 00:15:00,68.7,55.2,30.15,NE,40,0.0,0.0,62,0.00,CLR,,0.00,WeatherDisplay:10.37,2013-05-02 04:15:00,
2013-05-02 00:30:00,67.9,55.2,30.15,ENE,76,0.0,0.0,64,0.00,CLR,,0.00,WeatherDisplay:10.37,2013-05-02 04:30:00,
2013-05-02 00:45:00,67.3,55.1,30.15,North,7,0.0,0.0,65,0.00,CLR,,0.00,WeatherDisplay:10.37,2013-05-02 04:45:00,
2013-05-02 01:00:00,66.7,55.8,30.15,NNE,18,0.0,0.0,68,0.00,CLR,,0.00,WeatherDisplay:10.37,2013-05-02 05:00:00,
2013-05-02 01:15:00,66.0,56.0,30.15,NE,40,0.0,0.0,70,0.00,CLR,,0.00,WeatherDisplay:10.37,2013-05-02 05:15:00,
2013-05-02 01:30:00,65.6,56.0,30.16,ESE,111,0.0,1.0,71,0.00,CLR,,0.00,WeatherDisplay:10.37,2013-05-02 05:30:00,
2013-05-02 01:45:00,64.6,56.1,30.15,North,7,0.0,1.0,74,0.00,CLR,,0.00,WeatherDisplay:10.37,2013-05-02 05:45:00,
2013-05-02 02:00:00,64.1,56.0,30.15,North,5,0.0,1.0,75,0.00,CLR,,0.00,WeatherDisplay:10.37,2013-05-02 06:00:00,
2013-05-02 02:15:00,63.7,55.6,30.15,NNE,17,0.0,0.0,75,0.00,CLR,,0.00,WeatherDisplay:10.37,2013-05-02 06:15:00,
2013-05-02 02:30:00,63.8,55.7,30.14,NNE,27,0.0,2.0,75,0.00,CLR,,0.00,WeatherDisplay:10.37,2013-05-02 06:30:00,
2013-05-02 02:45:00,63.7,55.6,30.14,ENE,57,0.0,3.0,75,0.00,CLR,,0.00,WeatherDisplay:10.37,2013-05-02 06:45:00,
2013-05-02 03:00:00,63.7,55.7,30.14,North,5,0.0,2.0,75,0.00,CLR,,0.00,WeatherDisplay:10.37,2013-05-02 07:00:00,
2013-05-02 03:15:00,63.7,55.6,30.14,NE,45,0.0,0.0,75,0.00,CLR,,0.00,WeatherDisplay:10.37,2013-05-02 07:15:00,
2013-05-02 03:30:00,63.5,55.4,30.15,ENE,64,0.0,3.0,75,0.00,CLR,,0.00,WeatherDisplay:10.37,2013-05-02 07:30:00,
2013-05-02 03:45:00,63.7,56.0,30.14,NE,39,0.0,5.0,76,0.00,CLR,,0.00,WeatherDisplay:10.37,2013-05-02 07:45:00,
2013-05-02 04:00:00,63.5,55.4,30.14,ENE,68,0.0,2.0,75,0.00,CLR,,0.00,WeatherDisplay:10.37,2013-05-02 08:00:00,
2013-05-02 04:15:00,63.3,55.6,30.14,East,80,0.0,2.0,76,0.00,CLR,,0.00,WeatherDisplay:10.37,2013-05-02 08:15:00,
2013-05-02 04:30:00,63.4,55.7,30.14,ENE,64,0.0,2.0,76,0.00,CLR,,0.00,WeatherDisplay:10.37,2013-05-02 08:30:00,
2013-05-02 04:45:00,63.1,55.4,30.14,East,83,1.0,3.0,76,0.00,CLR,,0.00,WeatherDisplay:10.37,2013-05-02 08:45:00,
2013-05-02 05:00:00,63.1,55.4,30.14,East,95,1.0,3.0,76,0.00,CLR,,0.00,WeatherDisplay:10.37,2013-05-02 09:00:00,
2013-05-02 05:15:00,62.8,55.1,30.14,East,97,1.0,2.0,76,0.00,CLR,,0.00,WeatherDisplay:10.37,2013-05-02 09:15:00,
2013-05-02 05:30:00,62.5,54.8,30.14,ENE,57,0.0,4.0,76,0.00,CLR,,0.00,WeatherDisplay:10.37,2013-05-02 09:30:00,
2013-05-02 05:45:00,62.4,54.8,30.14,East,93,1.0,4.0,76,0.00,CLR,,0.00,WeatherDisplay:10.37,2013-05-02 09:45:00,
2013-05-02 06:00:00,61.9,54.6,30.14,East,101,1.0,3.0,77,0.00,CLR,,0.00,WeatherDisplay:10.37,2013-05-02 10:00:00,
2013-05-02 06:15:00,61.7,54.4,30.14,NE,52,0.0,2.0,77,0.00,SCT,,0.00,WeatherDisplay:10.37,2013-05-02 10:15:00,
2013-05-02 06:30:00,61.6,54.3,30.14,East,87,1.0,2.0,77,0.00,SCT,,0.00,WeatherDisplay:10.37,2013-05-02 10:30:00,
2013-05-02 06:45:00,61.7,54.4,30.14,ESE,105,0.0,3.0,77,0.00,SCT,,0.00,WeatherDisplay:10.37,2013-05-02 10:45:00,
2013-05-02 07:00:00,61.6,54.3,30.15,SE,129,1.0,2.0,77,0.00,SCT,,0.00,WeatherDisplay:10.37,2013-05-02 11:00:00,
2013-05-02 07:15:00,62.2,54.9,30.15,SE,127,1.0,4.0,77,0.00,BKN,,0.00,WeatherDisplay:10.37,2013-05-02 11:15:00,
2013-05-02 07:30:00,62.3,55.0,30.15,East,87,0.0,3.0,77,0.00,BKN,,0.00,WeatherDisplay:10.37,2013-05-02 11:30:00,
2013-05-02 07:45:00,62.8,55.1,30.16,SE,128,2.0,5.0,76,0.00,BKN,,0.00,WeatherDisplay:10.37,2013-05-02 11:45:00,
2013-05-02 08:00:00,64.2,55.8,30.16,ESE,114,2.0,4.0,74,0.00,BKN,,0.00,WeatherDisplay:10.37,2013-05-02 12:00:00,
2013-05-02 08:15:00,65.8,56.6,30.16,ESE,117,2.0,4.0,72,0.00,BKN,,0.00,WeatherDisplay:10.37,2013-05-02 12:15:00,
2013-05-02 08:30:00,66.9,56.4,30.17,ESE,116,2.0,5.0,69,0.00,BKN,,0.00,WeatherDisplay:10.37,2013-05-02 12:30:00,
2013-05-02 08:45:00,68.2,56.8,30.17,ESE,117,3.0,7.0,67,0.00,BKN,,0.00,WeatherDisplay:10.37,2013-05-02 12:45:00,
2013-05-02 09:00:00,69.4,57.2,30.17,SE,129,2.0,5.0,65,0.00,BKN,,0.00,WeatherDisplay:10.37,2013-05-02 13:00:00,
2013-05-02 09:15:00,70.7,57.5,30.17,SSE,159,2.0,5.0,63,0.00,BKN,,0.00,WeatherDisplay:10.37,2013-05-02 13:15:00,
2013-05-02 09:30:00,72.3,57.6,30.17,ESE,118,2.0,6.0,60,0.00,BKN,,0.00,WeatherDisplay:10.37,2013-05-02 13:30:00,
2013-05-02 09:45:00,73.6,57.9,30.18,SE,138,2.0,5.0,58,0.00,BKN,,0.00,WeatherDisplay:10.37,2013-05-02 13:45:00,
2013-05-02 10:00:00,74.6,57.9,30.17,SE,128,2.0,5.0,56,0.00,BKN,,0.00,WeatherDisplay:10.37,2013-05-02 14:00:00,
2013-05-02 10:15:00,75.9,58.6,30.17,ESE,106,2.0,5.0,55,0.00,SCT,,0.00,WeatherDisplay:10.37,2013-05-02 14:15:00,
2013-05-02 10:30:00,77.0,58.6,30.17,ESE,123,2.0,5.0,53,0.00,SCT,,0.00,WeatherDisplay:10.37,2013-05-02 14:30:00,
2013-05-02 10:45:00,77.9,58.3,30.17,SE,138,3.0,6.0,51,0.00,SCT,,0.00,WeatherDisplay:10.37,2013-05-02 14:45:00,
2013-05-02 11:00:00,79.2,59.0,30.16,ESE,116,2.0,6.0,50,0.00,SCT,,0.00,WeatherDisplay:10.37,2013-05-02 15:00:00,
2013-05-02 11:15:00,80.1,59.2,30.16,SSE,164,2.0,3.0,49,0.00,FEW,,0.00,WeatherDisplay:10.37,2013-05-02 15:15:00,
2013-05-02 11:30:00,81.5,59.9,30.15,SSE,167,3.0,5.0,48,0.00,FEW,,0.00,WeatherDisplay:10.37,2013-05-02 15:30:00,
2013-05-02 11:45:00,82.2,59.4,30.15,SE,140,2.0,5.0,46,0.00,FEW,,0.00,WeatherDisplay:10.37,2013-05-02 15:45:00,
2013-05-02 12:00:00,82.5,59.6,30.14,SSE,160,3.0,8.0,46,0.00,FEW,,0.00,WeatherDisplay:10.37,2013-05-02 16:00:00,
2013-05-02 12:15:00,82.9,59.4,30.14,South,185,5.0,8.0,45,0.00,FEW,,0.00,WeatherDisplay:10.37,2013-05-02 16:15:00,
2013-05-02 12:30:00,83.2,59.0,30.14,SSE,152,6.0,12.0,44,0.00,FEW,,0.00,WeatherDisplay:10.37,2013-05-02 16:30:00,
2013-05-02 12:45:00,82.8,58.6,30.14,SE,142,6.0,12.0,44,0.00,FEW,,0.00,WeatherDisplay:10.37,2013-05-02 16:45:00,
2013-05-02 13:00:00,82.7,58.6,30.13,South,180,6.0,9.0,44,0.00,FEW,,0.00,WeatherDisplay:10.37,2013-05-02 17:00:00,
2013-05-02 13:15:00,82.4,58.3,30.13,SSE,163,5.0,7.0,44,0.00,SCT,,0.00,WeatherDisplay:10.37,2013-05-02 17:15:00,
2013-05-02 13:30:00,83.2,58.3,30.12,South,190,3.0,11.0,43,0.00,SCT,,0.00,WeatherDisplay:10.37,2013-05-02 17:30:00,
2013-05-02 13:45:00,82.9,56.8,30.12,SSE,160,6.0,9.0,41,0.00,SCT,,0.00,WeatherDisplay:10.37,2013-05-02 17:45:00,
2013-05-02 14:00:00,83.4,57.9,30.11,SSE,167,3.0,8.0,42,0.00,SCT,,0.00,WeatherDisplay:10.37,2013-05-02 18:00:00,
2013-05-02 14:15:00,82.9,56.8,30.11,South,190,3.0,8.0,41,0.00,BKN,,0.00,WeatherDisplay:10.37,2013-05-02 18:15:00,
2013-05-02 14:30:00,82.2,56.8,30.10,SE,130,2.0,5.0,42,0.00,BKN,,0.00,WeatherDisplay:10.37,2013-05-02 18:30:00,
2013-05-02 14:45:00,82.9,59.4,30.10,SE,140,2.0,6.0,45,0.00,BKN,,0.00,WeatherDisplay:10.37,2013-05-02 18:45:00,
2013-05-02 15:00:00,83.7,57.5,30.09,SSE,168,5.0,6.0,41,0.00,BKN,,0.00,WeatherDisplay:10.37,2013-05-02 19:00:00,
2013-05-02 15:15:00,82.8,56.7,30.09,SE,142,5.0,7.0,41,0.00,BKN,,0.00,WeatherDisplay:10.37,2013-05-02 19:15:00,
2013-05-02 15:30:00,82.8,57.3,30.09,South,175,3.0,7.0,42,0.00,BKN,,0.00,WeatherDisplay:10.37,2013-05-02 19:30:00,
2013-05-02 15:45:00,81.5,56.8,30.08,ESE,110,5.0,9.0,43,0.00,BKN,,0.00,WeatherDisplay:10.37,2013-05-02 19:45:00,
2013-05-02 16:00:00,81.5,58.1,30.08,SSE,161,7.0,13.0,45,0.00,BKN,,0.00,WeatherDisplay:10.37,2013-05-02 20:00:00,
2013-05-02 16:15:00,81.1,58.4,30.08,SE,134,6.0,10.0,46,0.00,BKN,,0.00,WeatherDisplay:10.37,2013-05-02 20:15:00,
2013-05-02 16:30:00,81.1,58.3,30.07,SSE,149,5.0,11.0,46,0.00,BKN,,0.00,WeatherDisplay:10.37,2013-05-02 20:30:00,
2013-05-02 16:45:00,81.7,57.6,30.06,SE,139,6.0,12.0,44,0.00,BKN,,0.00,WeatherDisplay:10.37,2013-05-02 20:45:00,
2013-05-02 17:00:00,81.4,58.0,30.06,South,181,6.0,13.0,45,0.00,BKN,,0.00,WeatherDisplay:10.37,2013-05-02 21:00:00,
2013-05-02 17:15:00,80.1,59.7,30.06,West,259,8.0,12.0,50,0.00,BKN,,0.00,WeatherDisplay:10.37,2013-05-02 21:15:00,
2013-05-02 17:30:00,79.5,59.8,30.04,WNW,285,6.0,9.0,51,0.00,BKN,,0.00,WeatherDisplay:10.37,2013-05-02 21:30:00,
2013-05-02 17:45:00,78.3,60.8,30.06,WNW,295,6.0,9.0,55,0.00,BKN,,0.00,WeatherDisplay:10.37,2013-05-02 21:45:00,
2013-05-02 18:00:00,77.5,60.1,30.05,WNW,303,7.0,12.0,55,0.00,BKN,,0.00,WeatherDisplay:10.37,2013-05-02 22:00:00,
2013-05-02 18:15:00,78.1,60.1,30.05,West,277,7.0,12.0,54,0.00,BKN,,0.00,WeatherDisplay:10.37,2013-05-02 22:15:00,
2013-05-02 18:30:00,76.2,58.3,30.06,West,280,8.0,10.0,54,0.00,BKN,,0.00,WeatherDisplay:10.37,2013-05-02 22:30:00,
2013-05-02 18:45:00,74.5,56.7,30.07,West,275,7.0,10.0,54,0.00,BKN,,0.00,WeatherDisplay:10.37,2013-05-02 22:45:00,
2013-05-02 19:00:00,74.1,57.4,30.06,West,277,7.0,10.0,56,0.00,BKN,,0.00,WeatherDisplay:10.37,2013-05-02 23:00:00,
2013-05-02 19:15:00,73.4,57.2,30.06,West,265,6.0,9.0,57,0.00,-RA,,0.00,WeatherDisplay:10.37,2013-05-02 23:15:00,
2013-05-02 19:30:00,72.8,57.6,30.07,WSW,242,2.0,6.0,59,0.00,-RA,,0.00,WeatherDisplay:10.37,2013-05-02 23:30:00,
2013-05-02 19:45:00,71.6,58.8,30.06,NNW,336,2.0,6.0,64,0.00,-RA,,0.00,WeatherDisplay:10.37,2013-05-02 23:45:00,
2013-05-02 20:00:00,70.7,57.9,30.06,NW,311,0.0,2.0,64,0.00,-RA,,0.00,WeatherDisplay:10.37,2013-05-03 00:00:00,
2013-05-02 20:15:00,70.2,58.3,30.06,NNW,335,1.0,3.0,66,0.00,OVC,,0.00,WeatherDisplay:10.37,2013-05-03 00:15:00,
2013-05-02 20:30:00,69.5,57.7,30.07,NW,317,2.0,5.0,66,0.00,OVC,,0.00,WeatherDisplay:10.37,2013-05-03 00:30:00,
2013-05-02 20:45:00,68.9,56.6,30.07,NNW,345,2.0,6.0,65,0.00,OVC,,0.00,WeatherDisplay:10.37,2013-05-03 00:45:00,
2013-05-02 21:00:00,68.0,56.6,30.07,NW,322,2.0,6.0,67,0.00,OVC,,0.00,WeatherDisplay:10.37,2013-05-03 01:00:00,
2013-05-02 21:15:00,67.3,56.4,30.07,NNW,336,2.0,5.0,68,0.00,OVC,,0.00,WeatherDisplay:10.37,2013-05-03 01:15:00,
2013-05-02 21:30:00,66.6,56.6,30.07,NNW,334,1.0,4.0,70,0.00,OVC,,0.00,WeatherDisplay:10.37,2013-05-03 01:30:00,
2013-05-02 21:45:00,66.4,56.7,30.08,North,351,0.0,3.0,71,0.00,OVC,,0.00,WeatherDisplay:10.37,2013-05-03 01:45:00,
2013-05-02 22:00:00,66.3,56.2,30.08,NE,50,1.0,3.0,70,0.00,OVC,,0.00,WeatherDisplay:10.37,2013-05-03 02:00:00,
2013-05-02 22:15:00,65.8,56.6,30.08,NW,322,3.0,5.0,72,0.00,BKN,,0.00,WeatherDisplay:10.37,2013-05-03 02:15:00,
2013-05-02 22:30:00,64.9,55.3,30.09,NW,306,3.0,8.0,71,0.00,BKN,,0.00,WeatherDisplay:10.37,2013-05-03 02:30:00,
2013-05-02 22:45:00,63.5,54.3,30.09,NW,315,3.0,7.0,72,0.00,BKN,,0.00,WeatherDisplay:10.37,2013-05-03 02:45:00,
2013-05-02 23:00:00,62.0,53.2,30.10,NW,319,3.0,7.0,73,0.00,BKN,,0.00,WeatherDisplay:10.37,2013-05-03 03:00:00,
2013-05-02 23:15:00,61.3,53.0,30.10,NNW,334,2.0,5.0,74,0.00,BKN,,0.00,WeatherDisplay:10.37,2013-05-03 03:15:00,
2013-05-02 23:30:00,60.6,52.6,30.10,North,6,3.0,5.0,75,0.00,BKN,,0.00,WeatherDisplay:10.37,2013-05-03 03:30:00,
2013-05-02 23:45:00,60.1,52.5,30.09,North,352,2.0,4.0,76,0.00,BKN,,0.00,WeatherDisplay:10.37,2013-05-03 03:45:00,